TimeEDT,TemperatureF,Dew PointF,Humidity,Sea Level PressureIn,VisibilityMPH,Wind Direction,Wind SpeedMPH,Gust SpeedMPH,PrecipitationIn,Events,Conditions,WindDirDegrees,DateUTC
12:53 AM,32.0,21.9,66,30.22,10.0,East,4.6,-,N/A,,Clear,100,2013-04-06 04:53:00
1:53 AM,30.0,19.9,66,30.23,10.0,East,4.6,-,N/A,,Clear,100,2013-04-06 05:53:00
2:53 AM,30.0,19.0,64,30.23,10.0,East,3.5,-,N/A,,Clear,100,2013-04-06 06:53:00
3:53 AM,30.9,19.0,61,30.23,10.0,East,5.8,-,N/A,,Overcast,100,2013-04-06 07:53:00
4:53 AM,32.0,17.1,54,30.23,10.0,East,5.8,-,N/A,,Overcast,100,2013-04-06 08:53:00
5:53 AM,32.0,17.1,54,30.24,10.0,ESE,9.2,-,N/A,,Overcast,110,2013-04-06 09:53:00
6:53 AM,32.0,17.1,54,30.25,10.0,ESE,4.6,-,N/A,,Overcast,110,2013-04-06 10:53:00
7:53 AM,33.1,19.0,56,30.25,10.0,East,6.9,-,N/A,,Overcast,100,2013-04-06 11:53:00
8:53 AM,34.0,21.0,59,30.26,10.0,SE,6.9,-,N/A,,Overcast,140,2013-04-06 12:53:00
9:53 AM,36.0,21.0,55,30.25,10.0,SE,11.5,-,N/A,,Overcast,140,2013-04-06 13:53:00
10:53 AM,39.9,21.9,49,30.22,10.0,SE,12.7,20.7,N/A,,Mostly Cloudy,140,2013-04-06 14:53:00
11:53 AM,42.1,17.1,37,30.22,10.0,SE,16.1,23.0,N/A,,Partly Cloudy,140,2013-04-06 15:53:00
12:53 PM,44.1,17.1,34,30.18,10.0,SSE,16.1,20.7,N/A,,Clear,150,2013-04-06 16:53:00
1:53 PM,48.0,18.0,30,30.13,10.0,SSE,13.8,21.9,N/A,,Clear,150,2013-04-06 17:53:00
2:53 PM,48.9,19.9,32,30.09,10.0,SSE,13.8,23.0,N/A,,Clear,160,2013-04-06 18:53:00
3:53 PM,51.1,21.0,31,30.04,10.0,SSE,12.7,-,N/A,,Scattered Clouds,150,2013-04-06 19:53:00
4:53 PM,52.0,23.0,32,29.99,10.0,SE,13.8,21.9,N/A,,Clear,140,2013-04-06 20:53:00
5:53 PM,50.0,24.1,36,29.96,10.0,SSE,13.8,20.7,N/A,,Clear,150,2013-04-06 21:53:00
6:53 PM,48.9,25.0,39,29.93,10.0,SSE,13.8,21.9,N/A,,Partly Cloudy,150,2013-04-06 22:53:00
7:53 PM,46.9,26.1,44,29.92,10.0,SE,10.4,-,N/A,,Clear,140,2013-04-06 23:53:00
8:53 PM,45.0,27.0,49,29.91,10.0,SE,9.2,-,N/A,,Clear,130,2013-04-07 00:53:00
9:53 PM,45.0,28.0,52,29.87,10.0,SE,10.4,-,N/A,,Clear,140,2013-04-07 01:53:00
10:53 PM,45.0,28.0,52,29.84,10.0,SSE,8.1,-,N/A,,Scattered Clouds,150,2013-04-07 02:53:00
11:53 PM,48.0,26.1,42,29.80,10.0,SSE,8.1,-,N/A,,Mostly Cloudy,150,2013-04-07 03:53:00